Sterling Muni, Sterling, CO, CO

9:07 AM MDT on March 24, 2017 (GMT -0600)
Sterling Municipal

Weather History for KSTK - March, 2014

Change the Weather History Date:

Saturday, March 8, 2014

  Actual Average Record
Temperature  
Mean Temperature 46 °F -  
Max Temperature 59 °F 51 °F 68 °F (2017)
Min Temperature 32 °F 21 °F 19 °F (2017)
Degree Days  
Heating Degree Days 20    
Moisture  
Dew Point 33 °F    
Average Humidity 76    
Maximum Humidity 100    
Minimum Humidity 34    
Precipitation  
Precipitation 0.00 in - - ()
Sea Level Pressure  
Sea Level Pressure 30.23 in    
Wind  
Wind Speed 4 mph (West)    
Max Wind Speed 16 mph    
Max Gust Speed 21 mph    
Visibility 7 miles    
Events Fog    
Averages and records for this station are not official NWS values.
T = Trace of Precipitation, MM = Missing Value Source: NWS Daily Summary

Daily Weather History Graph

Daily Weather History Graph

Search for Another Location

Airport or City:

Trip Planner

Search our weather history database for the weather conditions in past years. The results will help you decide how hot, cold, wet, or windy it might be!

Date:

Astronomy

Mar. 08, 2014 Rise Set
Actual Time 6:15 AM MST 5:52 PM MST
Civil Twilight 5:48 AM MST 6:19 PM MST
Nautical Twilight 5:17 AM MST 6:51 PM MST
Astronomical Twilight 4:45 AM MST 7:23 PM MST
Moon 10:57 AM MST (3/8) 12:53 AM MST (3/8)
Length of Visible Light 12h 30m
Length of Day
11h 36m
First Quarter, 52% of the Moon is Illuminated
Mar 8
First Quarter
Mar 16
Full
Mar 23
Last Quarter
Mar 30
New
Apr 7
First Quarter

Hourly Weather History & Observations

Time (MST) Temp. Windchill Dew Point Humidity Pressure Visibility Wind Dir Wind Speed Gust Speed Precip Events Conditions
12:15 AM 35.6 °F - 35.6 °F 100% 30.18 in 5.0 mi Calm Calm - N/A   Overcast
12:35 AM 35.6 °F - 35.6 °F 100% 30.18 in 4.0 mi Calm Calm - N/A   Overcast
12:55 AM 35.6 °F 32.8 °F 35.6 °F 100% 30.19 in 3.0 mi NE 3.5 mph - N/A   Overcast
1:15 AM 35.6 °F - 35.6 °F 100% 30.19 in 2.5 mi Calm Calm - N/A   Overcast
1:35 AM 33.8 °F - 33.8 °F 100% 30.18 in 2.0 mi Calm Calm - N/A   Overcast
1:55 AM 33.8 °F - 33.8 °F 100% 30.18 in 2.0 mi Calm Calm - N/A   Overcast
2:15 AM 33.8 °F - 33.8 °F 100% 30.18 in 1.5 mi Calm Calm - N/A   Overcast
2:35 AM 33.8 °F - 33.8 °F 100% 30.18 in 1.0 mi Calm Calm - N/A   Overcast
2:55 AM 33.8 °F - 33.8 °F 100% 30.18 in 0.8 mi Calm Calm - N/A   Overcast
3:15 AM 33.8 °F - 33.8 °F 100% 30.18 in 1.2 mi Calm Calm - N/A   Overcast
3:35 AM 33.8 °F - 33.8 °F 100% 30.18 in 1.2 mi Calm Calm - N/A   Overcast
3:55 AM 33.8 °F - 33.8 °F 100% 30.18 in 2.0 mi Calm Calm - N/A   Overcast
4:10 AM 33.8 °F - 33.8 °F 100% 30.19 in 1.5 mi Calm Calm - N/A   Overcast
4:35 AM 33.8 °F - 33.8 °F 100% 30.20 in 1.0 mi Calm Calm - N/A   Overcast
4:55 AM 33.8 °F - 33.8 °F 100% 30.20 in 2.0 mi Calm Calm - N/A   Overcast
5:15 AM 33.8 °F - 33.8 °F 100% 30.21 in 10.0 mi Calm Calm - N/A   Scattered Clouds
5:30 AM 33.8 °F 30.8 °F 33.8 °F 100% 30.21 in 10.0 mi WNW 3.5 mph - N/A   Clear
5:50 AM 32.0 °F 27.5 °F 32.0 °F 100% 30.22 in 7.0 mi West 4.6 mph - N/A   Clear
6:15 AM 32.0 °F 28.7 °F 32.0 °F 100% 30.22 in 0.2 mi WSW 3.5 mph - N/A Fog Fog
6:35 AM 32.0 °F - 32.0 °F 100% 30.23 in 0.2 mi Calm Calm - N/A Fog Fog
6:55 AM 32.0 °F 26.4 °F 32.0 °F 100% 30.23 in 0.2 mi SW 5.8 mph - N/A Fog Fog
7:15 AM 32.0 °F 27.5 °F 32.0 °F 100% 30.24 in 0.2 mi SSW 4.6 mph - N/A Fog Fog
7:35 AM 32.0 °F 28.7 °F 32.0 °F 100% 30.25 in 0.5 mi SSW 3.5 mph - N/A Fog Fog
7:55 AM 35.6 °F 32.8 °F 35.6 °F 100% 30.25 in 5.0 mi South 3.5 mph - N/A   Scattered Clouds
8:15 AM 35.6 °F 30.7 °F 35.6 °F 100% 30.26 in 3.0 mi SSW 5.8 mph - N/A   Mostly Cloudy
8:35 AM 35.6 °F 30.7 °F 35.6 °F 100% 30.26 in 0.5 mi SSW 5.8 mph - N/A Fog Fog
8:55 AM 39.2 °F 37.0 °F 37.4 °F 93% 30.27 in 7.0 mi SSW 3.5 mph - N/A   Scattered Clouds
9:15 AM 41.0 °F 38.0 °F 41.0 °F 100% 30.27 in 10.0 mi South 4.6 mph - N/A   Clear
9:35 AM 44.6 °F 43.1 °F 41.0 °F 87% 30.27 in 10.0 mi SE 3.5 mph - N/A   Clear
9:55 AM 46.4 °F 44.3 °F 41.0 °F 81% 30.27 in 10.0 mi NE 4.6 mph - N/A   Clear
10:15 AM 50.0 °F - 35.6 °F 58% 30.27 in 10.0 mi North 15.0 mph 20.7 mph N/A   Clear
10:35 AM 51.8 °F - 33.8 °F 50% 30.27 in 10.0 mi North 15.0 mph - N/A   Clear
10:55 AM 51.8 °F - 33.8 °F 50% 30.27 in 10.0 mi North 16.1 mph 19.6 mph N/A   Clear
11:15 AM 53.6 °F - 32.0 °F 44% 30.27 in 10.0 mi North 11.5 mph 19.6 mph N/A   Clear
11:35 AM 53.6 °F - 33.8 °F 47% 30.27 in 10.0 mi North 12.7 mph 17.3 mph N/A   Clear
11:55 AM 53.6 °F - 32.0 °F 44% 30.27 in 10.0 mi North 11.5 mph - N/A   Scattered Clouds
12:15 PM 53.6 °F - 32.0 °F 44% 30.26 in 10.0 mi North 6.9 mph - N/A   Scattered Clouds
12:35 PM 53.6 °F - 32.0 °F 44% 30.25 in 10.0 mi NW 11.5 mph - N/A   Mostly Cloudy
12:55 PM 53.6 °F - 32.0 °F 44% 30.24 in 10.0 mi North 9.2 mph - N/A   Mostly Cloudy
1:15 PM 51.8 °F - 32.0 °F 47% 30.24 in 10.0 mi NNW 10.4 mph - N/A   Scattered Clouds
1:35 PM 55.4 °F - 32.0 °F 41% 30.23 in 10.0 mi North 11.5 mph - N/A   Scattered Clouds
1:55 PM 55.4 °F - 30.2 °F 38% 30.22 in 10.0 mi NNW 8.1 mph - N/A   Scattered Clouds
2:15 PM 53.6 °F - 30.2 °F 41% 30.22 in 10.0 mi NNW 9.2 mph - N/A   Clear
2:35 PM 57.2 °F - 32.0 °F 38% 30.22 in 10.0 mi NNW 8.1 mph - N/A   Clear
2:55 PM 55.4 °F - 30.2 °F 38% 30.22 in 10.0 mi North 5.8 mph - N/A   Scattered Clouds
3:15 PM 57.2 °F - 30.2 °F 36% 30.23 in 10.0 mi WNW 5.8 mph - N/A   Scattered Clouds
3:30 PM 59.0 °F - 30.2 °F 34% 30.23 in 10.0 mi North 8.1 mph - N/A   Mostly Cloudy
3:55 PM 57.2 °F - 30.2 °F 36% 30.23 in 10.0 mi NW 10.4 mph - N/A   Scattered Clouds
4:15 PM 55.4 °F - 30.2 °F 38% 30.22 in 10.0 mi West 4.6 mph - N/A   Scattered Clouds
4:30 PM 55.4 °F - 30.2 °F 38% 30.22 in 10.0 mi Calm Calm - N/A   Clear
4:55 PM 55.4 °F - 28.4 °F 36% 30.22 in 10.0 mi NW 3.5 mph - N/A   Clear
5:10 PM 55.4 °F - 30.2 °F 38% 30.21 in 10.0 mi WNW 4.6 mph - N/A   Clear
5:30 PM 53.6 °F - 32.0 °F 44% 30.22 in 10.0 mi WNW 3.5 mph - N/A   Clear
5:55 PM 50.0 °F - 32.0 °F 50% 30.22 in 10.0 mi Calm Calm - N/A   Clear
6:15 PM 42.8 °F 40.1 °F 32.0 °F 66% 30.22 in 10.0 mi WSW 4.6 mph - N/A   Clear
6:35 PM 42.8 °F 39.3 °F 32.0 °F 66% 30.23 in 10.0 mi WSW 5.8 mph - N/A   Clear
6:55 PM 41.0 °F 37.1 °F 32.0 °F 70% 30.23 in 10.0 mi West 5.8 mph - N/A   Clear
7:10 PM 39.2 °F 34.2 °F 32.0 °F 75% 30.24 in 10.0 mi West 6.9 mph - N/A   Clear
7:35 PM 37.4 °F 32.1 °F 32.0 °F 81% 30.24 in 10.0 mi WSW 6.9 mph - N/A   Clear
7:50 PM 37.4 °F 32.1 °F 32.0 °F 81% 30.23 in 10.0 mi SW 6.9 mph - N/A   Clear
8:15 PM 37.4 °F 31.4 °F 32.0 °F 81% 30.23 in 10.0 mi SSW 8.1 mph - N/A   Clear
8:30 PM 35.6 °F 29.9 °F 32.0 °F 87% 30.23 in 10.0 mi WSW 6.9 mph - N/A   Clear
8:55 PM 37.4 °F 31.4 °F 32.0 °F 81% 30.23 in 10.0 mi SW 8.1 mph - N/A   Clear
9:15 PM 33.8 °F 27.0 °F 32.0 °F 93% 30.23 in 10.0 mi SW 8.1 mph - N/A   Clear
9:35 PM 35.6 °F 29.2 °F 32.0 °F 87% 30.22 in 10.0 mi SW 8.1 mph - N/A   Clear
9:55 PM 33.8 °F 27.0 °F 32.0 °F 93% 30.22 in 10.0 mi SW 8.1 mph - N/A   Clear
10:15 PM 33.8 °F 27.7 °F 32.0 °F 93% 30.22 in 10.0 mi SW 6.9 mph - N/A   Clear
10:35 PM 33.8 °F 27.7 °F 32.0 °F 93% 30.23 in 10.0 mi WSW 6.9 mph - N/A   Clear
10:55 PM 33.8 °F 26.4 °F 32.0 °F 93% 30.22 in 10.0 mi SW 9.2 mph - N/A   Clear
11:15 PM 33.8 °F 28.6 °F 32.0 °F 93% 30.22 in 10.0 mi SSW 5.8 mph - N/A   Clear
11:35 PM 33.8 °F 27.0 °F 32.0 °F 93% 30.21 in 10.0 mi SW 8.1 mph - N/A   Clear
11:55 PM 33.8 °F 26.4 °F 32.0 °F 93% 30.21 in 10.0 mi SSW 9.2 mph - N/A   Clear